QPF
0.01 0.00 0.00 0.00 0.00 0.00 0.00 0.00 0.01 0.02 0.02 0.03 0.04 0.02 0.01 0.01 0.01 0.03 0.03 0.01 0.01 0.01 0.01 0.01 0.01 0.01 0.01 0.01 0.01 0.03 0.04 0.02 0.02 0.03 0.03 0.03 0.03 0.03 0.02 0.02 0.02 0.02 0.02 0.02
0.00 0.00 0.00 0.00 0.00 0.00 0.00 0.00 0.01 0.01 0.02 0.03 0.04 0.02 0.01 0.00 0.01 0.01 0.01 0.00 0.00 0.00 0.00 0.01 0.01 0.01 0.00 0.01 0.01 0.02 0.03 0.02 0.02 0.02 0.02 0.02 0.03 0.03 0.03 0.02 0.02 0.01 0.01 0.01
0.01 0.00 0.00 0.01 0.01 0.00 0.00 0.00 0.00 0.01 0.03 0.03 0.01 0.01 0.01 0.00 0.01 0.01 0.01 0.00 0.00 0.00 0.00 0.00 0.01 0.01 0.01 0.01 0.01 0.01 0.02 0.02 0.01 0.02 0.02 0.02 0.01 0.02 0.02 0.02 0.02 0.02 0.01 0.02
0.00 0.01 0.01 0.01 0.01 0.00 0.00 0.00 0.01 0.01 0.02 0.02 0.01 0.01 0.01 0.00 0.01 0.02 0.01 0.00 0.00 0.00 0.00 0.00 0.00 0.01 0.01 0.02 0.02 0.02 0.03 0.02 0.02 0.02 0.02 0.01 0.01 0.01 0.02 0.02 0.02 0.02 0.02 0.02
0.02 0.02 0.02 0.01 0.00 0.00 0.00 0.01 0.01 0.02 0.01 0.01 0.01 0.01 0.01 0.01 0.01 0.01 0.00 0.00 0.00 0.01 0.01 0.01 0.01 0.01 0.02 0.02 0.04 0.04 0.03 0.02 0.01 0.01 0.01 0.01 0.01 0.01 0.02 0.02 0.02 0.02 0.02 0.01
0.03 0.03 0.04 0.02 0.01 0.00 0.00 0.01 0.02 0.01 0.01 0.01 0.02 0.03 0.03 0.02 0.02 0.02 0.02 0.01 0.01 0.01 0.01 0.01 0.01 0.01 0.02 0.02 0.03 0.03 0.03 0.01 0.01 0.01 0.01 0.01 0.01 0.01 0.01 0.01 0.01 0.01 0.01 0.01
0.04 0.03 0.02 0.01 0.01 0.00 0.01 0.02 0.01 0.01 0.02 0.02 0.02 0.04 0.04 0.03 0.03 0.02 0.01 0.01 0.00 0.01 0.01 0.01 0.01 0.02 0.03 0.04 0.03 0.02 0.02 0.02 0.01 0.01 0.01 0.01 0.01 0.01 0.01 0.01 0.02 0.02 0.02 0.01
0.03 0.04 0.04 0.01 0.01 0.01 0.02 0.01 0.01 0.01 0.02 0.02 0.02 0.03 0.03 0.02 0.01 0.01 0.01 0.00 0.00 0.00 0.01 0.01 0.01 0.02 0.04 0.05 0.04 0.03 0.02 0.02 0.02 0.02 0.01 0.01 0.02 0.03 0.03 0.03 0.02 0.02 0.02 0.01
0.05 0.05 0.04 0.03 0.04 0.04 0.03 0.02 0.03 0.02 0.02 0.02 0.01 0.02 0.02 0.01 0.01 0.01 0.01 0.00 0.00 0.01 0.01 0.01 0.02 0.03 0.04 0.04 0.04 0.03 0.03 0.03 0.03 0.03 0.02 0.02 0.02 0.03 0.03 0.03 0.03 0.03 0.03 0.02
0.05 0.06 0.04 0.03 0.05 0.05 0.05 0.04 0.04 0.02 0.02 0.04 0.04 0.02 0.01 0.01 0.01 0.01 0.01 0.01 0.01 0.01 0.02 0.03 0.04 0.04 0.04 0.04 0.05 0.05 0.05 0.05 0.04 0.04 0.04 0.04 0.04 0.03 0.03 0.03 0.03 0.03 0.03 0.03
0.04 0.04 0.04 0.03 0.02 0.03 0.04 0.04 0.03 0.02 0.01 0.03 0.05 0.03 0.02 0.02 0.02 0.02 0.02 0.02 0.03 0.03 0.04 0.04 0.06 0.07 0.06 0.05 0.06 0.07 0.06 0.05 0.05 0.04 0.04 0.04 0.04 0.03 0.03 0.03 0.04 0.03 0.03 0.03
0.06 0.05 0.05 0.05 0.03 0.02 0.03 0.04 0.05 0.06 0.04 0.02 0.01 0.01 0.01 0.02 0.04 0.05 0.03 0.03 0.04 0.05 0.06 0.06 0.06 0.05 0.06 0.06 0.05 0.06 0.06 0.06 0.05 0.04 0.03 0.03 0.02 0.02 0.02 0.02 0.02 0.03 0.04 0.04
0.03 0.03 0.03 0.03 0.03 0.02 0.03 0.04 0.06 0.06 0.05 0.03 0.02 0.02 0.02 0.03 0.04 0.05 0.05 0.05 0.06 0.07 0.09 0.07 0.06 0.06 0.06 0.06 0.06 0.05 0.05 0.05 0.04 0.03 0.03 0.02 0.01 0.01 0.01 0.02 0.01 0.01 0.02 0.02
0.03 0.01 0.01 0.02 0.02 0.02 0.02 0.04 0.04 0.03 0.04 0.04 0.03 0.03 0.03 0.04 0.05 0.05 0.05 0.05 0.06 0.06 0.07 0.09 0.06 0.06 0.05 0.05 0.05 0.04 0.04 0.04 0.04 0.04 0.03 0.03 0.03 0.03 0.02 0.02 0.02 0.02 0.02 0.01
0.03 0.02 0.01 0.01 0.01 0.02 0.02 0.02 0.03 0.03 0.04 0.04 0.05 0.05 0.04 0.04 0.04 0.05 0.05 0.05 0.06 0.06 0.06 0.08 0.08 0.05 0.04 0.03 0.04 0.04 0.04 0.04 0.04 0.04 0.03 0.03 0.03 0.03 0.03 0.03 0.03 0.03 0.03 0.02
0.01 0.01 0.01 0.01 0.01 0.01 0.01 0.01 0.02 0.02 0.03 0.03 0.03 0.04 0.04 0.04 0.06 0.06 0.05 0.05 0.06 0.07 0.06 0.04 0.05 0.04 0.03 0.03 0.03 0.04 0.04 0.04 0.04 0.03 0.02 0.03 0.03 0.02 0.02 0.02 0.02 0.02 0.03 0.03
0.01 0.01 0.01 0.01 0.01 0.01 0.01 0.01 0.01 0.02 0.02 0.03 0.03 0.03 0.03 0.04 0.05 0.06 0.06 0.06 0.08 0.10 0.09 0.06 0.05 0.04 0.04 0.03 0.03 0.02 0.02 0.03 0.02 0.02 0.02 0.01 0.03 0.03 0.02 0.02 0.02 0.02 0.02 0.02
0.01 0.01 0.01 0.01 0.01 0.01 0.01 0.01 0.01 0.02 0.02 0.02 0.01 0.02 0.03 0.04 0.05 0.05 0.05 0.06 0.09 0.11 0.11 0.10 0.07 0.06 0.05 0.04 0.03 0.02 0.02 0.02 0.01 0.01 0.01 0.01 0.02 0.03 0.02 0.03 0.02 0.02 0.02 0.02
0.01 0.01 0.01 0.01 0.01 0.01 0.01 0.01 0.01 0.01 0.02 0.01 0.01 0.01 0.02 0.03 0.06 0.08 0.08 0.09 0.11 0.10 0.10 0.09 0.07 0.05 0.04 0.03 0.02 0.02 0.02 0.01 0.01 0.01 0.01 0.02 0.02 0.03 0.03 0.03 0.03 0.03 0.02 0.02
0.01 0.01 0.01 0.01 0.01 0.01 0.01 0.01 0.01 0.01 0.01 0.01 0.01 0.01 0.03 0.05 0.06 0.07 0.07 0.07 0.07 0.07 0.08 0.10 0.07 0.04 0.03 0.02 0.02 0.02 0.02 0.01 0.01 0.01 0.02 0.02 0.01 0.02 0.02 0.03 0.03 0.03 0.03 0.02
0.01 0.01 0.01 0.01 0.01 0.02 0.02 0.01 0.01 0.01 0.01 0.01 0.01 0.02 0.03 0.04 0.05 0.06 0.06 0.07 0.07 0.07 0.08 0.10 0.07 0.04 0.03 0.02 0.02 0.02 0.02 0.02 0.02 0.02 0.02 0.02 0.01 0.01 0.02 0.02 0.02 0.02 0.02 0.03
0.02 0.02 0.02 0.02 0.02 0.02 0.02 0.02 0.02 0.02 0.01 0.02 0.02 0.02 0.02 0.03 0.05 0.07 0.09 0.12 0.09 0.08 0.07 0.07 0.06 0.04 0.03 0.02 0.02 0.02 0.02 0.02 0.02 0.02 0.02 0.02 0.02 0.02 0.02 0.02 0.02 0.02 0.02 0.02
0.02 0.02 0.03 0.04 0.04 0.03 0.02 0.02 0.02 0.02 0.03 0.04 0.04 0.04 0.03 0.03 0.04 0.06 0.08 0.08 0.07 0.06 0.05 0.04 0.03 0.02 0.02 0.02 0.01 0.02 0.02 0.02 0.02 0.02 0.02 0.03 0.03 0.03 0.03 0.03 0.02 0.02 0.02 0.02
0.03 0.03 0.03 0.03 0.03 0.04 0.04 0.03 0.03 0.04 0.04 0.04 0.03 0.02 0.03 0.04 0.05 0.06 0.05 0.05 0.05 0.05 0.03 0.02 0.01 0.01 0.01 0.01 0.01 0.01 0.02 0.02 0.02 0.02 0.02 0.02 0.02 0.03 0.03 0.03 0.03 0.03 0.03 0.02
0.03 0.03 0.03 0.03 0.03 0.04 0.05 0.04 0.04 0.03 0.03 0.04 0.04 0.04 0.03 0.04 0.04 0.04 0.03 0.03 0.03 0.03 0.02 0.01 0.00 0.00 0.00 0.00 0.01 0.01 0.01 0.02 0.02 0.02 0.02 0.02 0.02 0.02 0.03 0.03 0.03 0.03 0.03 0.02
0.03 0.04 0.04 0.03 0.03 0.03 0.04 0.04 0.04 0.04 0.05 0.04 0.04 0.04 0.03 0.03 0.02 0.02 0.02 0.02 0.02 0.02 0.01 0.01 0.01 0.01 0.01 0.01 0.01 0.01 0.02 0.03 0.03 0.03 0.03 0.03 0.03 0.02 0.02 0.02 0.02 0.03 0.03 0.03
0.02 0.03 0.03 0.03 0.03 0.03 0.04 0.04 0.05 0.06 0.06 0.05 0.04 0.03 0.03 0.02 0.02 0.02 0.01 0.01 0.02 0.02 0.01 0.01 0.01 0.01 0.01 0.01 0.02 0.03 0.03 0.02 0.02 0.02 0.02 0.02 0.02 0.02 0.02 0.02 0.02 0.03 0.03 0.02
MSLP
1014.04 1013.64 1013.29 1013.02 1012.83 1012.70 1012.60 1012.51 1012.38 1012.20 1011.96 1011.64 1011.26 1010.82 1010.33 1009.80 1009.25 1008.66 1008.07 1007.46 1006.87 1006.32 1005.82 1005.39 1005.05 1004.80 1004.63 1004.50 1004.39 1004.26 1004.10 1003.89 1003.65 1003.40 1003.18 1003.05 1003.05 1003.21 1003.56 1004.07 1004.73 1005.48 1006.26 1007.04
1014.18 1013.91 1013.68 1013.53 1013.44 1013.40 1013.39 1013.36 1013.29 1013.13 1012.88 1012.52 1012.04 1011.47 1010.81 1010.09 1009.32 1008.54 1007.76 1007.01 1006.31 1005.69 1005.16 1004.73 1004.41 1004.19 1004.05 1003.97 1003.90 1003.83 1003.74 1003.63 1003.51 1003.41 1003.37 1003.43 1003.62 1003.96 1004.46 1005.09 1005.83 1006.62 1007.41 1008.15
1014.30 1014.18 1014.11 1014.09 1014.11 1014.17 1014.23 1014.24 1014.18 1014.01 1013.71 1013.25 1012.65 1011.92 1011.08 1010.17 1009.21 1008.25 1007.32 1006.44 1005.66 1004.98 1004.43 1004.01 1003.70 1003.51 1003.40 1003.36 1003.34 1003.34 1003.35 1003.36 1003.39 1003.47 1003.63 1003.90 1004.30 1004.83 1005.48 1006.23 1007.03 1007.84 1008.61 1009.30
1014.50 1014.54 1014.61 1014.72 1014.85 1014.98 1015.08 1015.10 1015.02 1014.79 1014.39 1013.83 1013.09 1012.20 1011.20 1010.13 1009.02 1007.93 1006.88 1005.92 1005.07 1004.36 1003.79 1003.35 1003.05 1002.87 1002.77 1002.75 1002.78 1002.85 1002.95 1003.10 1003.29 1003.56 1003.93 1004.41 1005.01 1005.72 1006.51 1007.36 1008.21 1009.02 1009.75 1010.37
1014.85 1015.02 1015.20 1015.40 1015.61 1015.78 1015.88 1015.88 1015.74 1015.43 1014.93 1014.25 1013.39 1012.38 1011.27 1010.08 1008.88 1007.70 1006.58 1005.57 1004.68 1003.94 1003.34 1002.88 1002.56 1002.36 1002.26 1002.25 1002.31 1002.43 1002.63 1002.90 1003.25 1003.70 1004.26 1004.93 1005.71 1006.56 1007.47 1008.39 1009.27 1010.07 1010.75 1011.30
1015.33 1015.58 1015.84 1016.10 1016.33 1016.50 1016.58 1016.53 1016.32 1015.92 1015.33 1014.56 1013.61 1012.53 1011.34 1010.11 1008.86 1007.65 1006.52 1005.48 1004.57 1003.79 1003.16 1002.66 1002.30 1002.05 1001.93 1001.91 1001.99 1002.16 1002.44 1002.82 1003.31 1003.92 1004.64 1005.47 1006.39 1007.35 1008.34 1009.29 1010.18 1010.95 1011.59 1012.08
1015.86 1016.15 1016.45 1016.73 1016.96 1017.10 1017.13 1017.02 1016.73 1016.26 1015.61 1014.77 1013.78 1012.68 1011.49 1010.26 1009.03 1007.83 1006.71 1005.67 1004.75 1003.94 1003.26 1002.71 1002.29 1001.99 1001.82 1001.78 1001.87 1002.09 1002.43 1002.92 1003.53 1004.27 1005.12 1006.07 1007.08 1008.11 1009.13 1010.09 1010.96 1011.70 1012.29 1012.73
1016.33 1016.64 1016.95 1017.22 1017.42 1017.53 1017.50 1017.33 1016.98 1016.46 1015.77 1014.92 1013.94 1012.86 1011.72 1010.55 1009.37 1008.23 1007.14 1006.13 1005.20 1004.36 1003.63 1003.02 1002.53 1002.17 1001.96 1001.90 1001.99 1002.25 1002.66 1003.23 1003.95 1004.79 1005.74 1006.76 1007.82 1008.88 1009.89 1010.83 1011.65 1012.34 1012.89 1013.30
1016.66 1016.96 1017.26 1017.51 1017.68 1017.74 1017.68 1017.45 1017.07 1016.53 1015.84 1015.02 1014.10 1013.09 1012.04 1010.96 1009.88 1008.81 1007.78 1006.79 1005.86 1004.99 1004.21 1003.54 1002.98 1002.57 1002.31 1002.24 1002.35 1002.64 1003.12 1003.77 1004.57 1005.49 1006.50 1007.56 1008.63 1009.67 1010.64 1011.53 1012.29 1012.93 1013.43 1013.81
1016.76 1017.06 1017.35 1017.58 1017.72 1017.76 1017.66 1017.42 1017.03 1016.50 1015.85 1015.10 1014.26 1013.37 1012.43 1011.47 1010.50 1009.53 1008.56 1007.60 1006.67 1005.78 1004.95 1004.22 1003.61 1003.14 1002.86 1002.78 1002.91 1003.25 1003.79 1004.50 1005.37 1006.34 1007.38 1008.45 1009.50 1010.49 1011.41 1012.22 1012.91 1013.48 1013.94 1014.30
1016.63 1016.94 1017.22 1017.44 1017.58 1017.60 1017.50 1017.26 1016.90 1016.41 1015.83 1015.18 1014.45 1013.69 1012.89 1012.06 1011.21 1010.33 1009.43 1008.51 1007.58 1006.67 1005.81 1005.03 1004.37 1003.87 1003.57 1003.49 1003.64 1004.02 1004.61 1005.38 1006.28 1007.29 1008.34 1009.39 1010.39 1011.33 1012.16 1012.89 1013.51 1014.02 1014.44 1014.77
1016.34 1016.65 1016.94 1017.17 1017.30 1017.33 1017.24 1017.03 1016.72 1016.30 1015.81 1015.27 1014.68 1014.05 1013.40 1012.70 1011.97 1011.19 1010.36 1009.48 1008.57 1007.65 1006.76 1005.95 1005.26 1004.73 1004.41 1004.33 1004.50 1004.90 1005.52 1006.32 1007.25 1008.26 1009.29 1010.31 1011.26 1012.13 1012.89 1013.54 1014.09 1014.54 1014.92 1015.24
1015.97 1016.30 1016.60 1016.83 1016.98 1017.03 1016.97 1016.80 1016.54 1016.21 1015.82 1015.39 1014.94 1014.46 1013.94 1013.39 1012.78 1012.10 1011.34 1010.51 1009.63 1008.71 1007.81 1006.98 1006.26 1005.71 1005.37 1005.28 1005.44 1005.85 1006.47 1007.27 1008.20 1009.19 1010.19 1011.16 1012.06 1012.85 1013.55 1014.14 1014.63 1015.04 1015.39 1015.70
1015.63 1015.97 1016.28 1016.53 1016.69 1016.75 1016.72 1016.60 1016.41 1016.16 1015.87 1015.56 1015.24 1014.89 1014.52 1014.10 1013.61 1013.03 1012.36 1011.60 1010.75 1009.85 1008.96 1008.11 1007.38 1006.80 1006.44 1006.33 1006.46 1006.84 1007.44 1008.21 1009.10 1010.05 1011.00 1011.92 1012.76 1013.50 1014.15 1014.69 1015.14 1015.53 1015.87 1016.17
1015.39 1015.74 1016.05 1016.30 1016.47 1016.54 1016.54 1016.46 1016.32 1016.15 1015.96 1015.76 1015.56 1015.35 1015.10 1014.81 1014.44 1013.98 1013.40 1012.71 1011.92 1011.06 1010.19 1009.35 1008.61 1008.01 1007.62 1007.47 1007.56 1007.89 1008.42 1009.13 1009.96 1010.84 1011.74 1012.60 1013.39 1014.09 1014.70 1015.21 1015.65 1016.03 1016.37 1016.67
1015.30 1015.64 1015.94 1016.18 1016.34 1016.42 1016.43 1016.39 1016.30 1016.19 1016.08 1015.98 1015.88 1015.78 1015.66 1015.49 1015.24 1014.89 1014.41 1013.81 1013.10 1012.30 1011.47 1010.66 1009.92 1009.32 1008.90 1008.70 1008.73 1008.98 1009.44 1010.06 1010.81 1011.61 1012.44 1013.24 1013.98 1014.65 1015.24 1015.74 1016.18 1016.57 1016.91 1017.22
1015.33 1015.66 1015.94 1016.16 1016.31 1016.39 1016.40 1016.37 1016.31 1016.25 1016.21 1016.18 1016.17 1016.17 1016.15 1016.09 1015.95 1015.71 1015.34 1014.84 1014.23 1013.51 1012.75 1011.99 1011.28 1010.68 1010.24 1010.00 1009.97 1010.15 1010.52 1011.04 1011.69 1012.41 1013.16 1013.90 1014.59 1015.23 1015.80 1016.31 1016.75 1017.14 1017.49 1017.81
1015.47 1015.78 1016.04 1016.23 1016.36 1016.42 1016.42 1016.39 1016.35 1016.32 1016.32 1016.34 1016.40 1016.48 1016.54 1016.57 1016.53 1016.39 1016.14 1015.75 1015.24 1014.63 1013.96 1013.28 1012.63 1012.06 1011.62 1011.36 1011.28 1011.38 1011.66 1012.10 1012.65 1013.28 1013.94 1014.61 1015.26 1015.87 1016.42 1016.91 1017.36 1017.75 1018.10 1018.41
1015.67 1015.96 1016.20 1016.37 1016.46 1016.50 1016.49 1016.45 1016.41 1016.39 1016.41 1016.46 1016.56 1016.68 1016.80 1016.90 1016.94 1016.90 1016.74 1016.47 1016.08 1015.59 1015.04 1014.45 1013.88 1013.38 1012.98 1012.72 1012.61 1012.67 1012.88 1013.23 1013.69 1014.23 1014.81 1015.41 1016.01 1016.57 1017.09 1017.56 1017.98 1018.36 1018.69 1018.98
1015.91 1016.19 1016.40 1016.54 1016.62 1016.63 1016.60 1016.54 1016.50 1016.47 1016.48 1016.54 1016.65 1016.79 1016.94 1017.08 1017.17 1017.20 1017.14 1016.97 1016.70 1016.34 1015.92 1015.46 1015.00 1014.59 1014.25 1014.02 1013.92 1013.95 1014.12 1014.40 1014.78 1015.24 1015.75 1016.27 1016.79 1017.30 1017.77 1018.19 1018.58 1018.91 1019.20 1019.44
1016.15 1016.43 1016.63 1016.75 1016.81 1016.80 1016.75 1016.67 1016.61 1016.56 1016.56 1016.60 1016.69 1016.83 1016.98 1017.13 1017.26 1017.34 1017.35 1017.27 1017.12 1016.88 1016.59 1016.27 1015.94 1015.63 1015.38 1015.22 1015.14 1015.18 1015.32 1015.56 1015.88 1016.26 1016.68 1017.13 1017.58 1018.01 1018.41 1018.77 1019.09 1019.36 1019.58 1019.76
1016.39 1016.67 1016.87 1016.98 1017.02 1017.00 1016.93 1016.84 1016.75 1016.68 1016.65 1016.66 1016.73 1016.83 1016.96 1017.11 1017.24 1017.35 1017.41 1017.41 1017.35 1017.24 1017.07 1016.88 1016.68 1016.49 1016.34 1016.25 1016.23 1016.28 1016.41 1016.62 1016.88 1017.20 1017.55 1017.92 1018.28 1018.63 1018.95 1019.23 1019.47 1019.66 1019.80 1019.91
1016.62 1016.90 1017.09 1017.20 1017.24 1017.20 1017.13 1017.02 1016.92 1016.82 1016.76 1016.74 1016.77 1016.84 1016.94 1017.06 1017.18 1017.30 1017.39 1017.45 1017.46 1017.44 1017.39 1017.31 1017.23 1017.16 1017.10 1017.08 1017.11 1017.19 1017.32 1017.51 1017.73 1017.99 1018.27 1018.56 1018.84 1019.11 1019.35 1019.54 1019.70 1019.80 1019.87 1019.90
1016.78 1017.06 1017.26 1017.37 1017.41 1017.38 1017.30 1017.19 1017.08 1016.97 1016.89 1016.84 1016.83 1016.86 1016.93 1017.02 1017.13 1017.24 1017.34 1017.44 1017.51 1017.56 1017.59 1017.60 1017.61 1017.63 1017.65 1017.69 1017.77 1017.87 1018.00 1018.16 1018.35 1018.56 1018.79 1019.01 1019.22 1019.41 1019.58 1019.70 1019.78 1019.82 1019.81 1019.77
1016.84 1017.12 1017.32 1017.44 1017.48 1017.46 1017.39 1017.29 1017.18 1017.08 1016.99 1016.93 1016.90 1016.91 1016.95 1017.01 1017.10 1017.20 1017.31 1017.42 1017.52 1017.62 1017.70 1017.78 1017.85 1017.92 1018.00 1018.08 1018.18 1018.29 1018.42 1018.56 1018.72 1018.89 1019.07 1019.24 1019.40 1019.54 1019.65 1019.72 1019.75 1019.74 1019.68 1019.60
1016.73 1017.01 1017.21 1017.34 1017.39 1017.39 1017.34 1017.27 1017.19 1017.10 1017.03 1016.97 1016.95 1016.95 1016.98 1017.04 1017.11 1017.21 1017.31 1017.42 1017.54 1017.65 1017.76 1017.86 1017.97 1018.06 1018.16 1018.26 1018.36 1018.46 1018.58 1018.70 1018.84 1018.98 1019.12 1019.26 1019.39 1019.51 1019.59 1019.64 1019.65 1019.62 1019.55 1019.44
1016.41 1016.69 1016.90 1017.04 1017.12 1017.14 1017.14 1017.10 1017.06 1017.02 1016.98 1016.95 1016.95 1016.97 1017.01 1017.06 1017.14 1017.23 1017.33 1017.44 1017.55 1017.66 1017.77 1017.88 1017.98 1018.07 1018.16 1018.25 1018.34 1018.43 1018.52 1018.63 1018.74 1018.87 1019.00 1019.13 1019.25 1019.37 1019.45 1019.51 1019.53 1019.51 1019.45 1019.35
Thickness
5742 5755 5762 5764 5769 5773 5768 5766 5758 5762 5762 5768 5774 5776 5777 5777 5774 5770 5765 5766 5764 5761 5757 5754 5751 5748 5745 5742 5738 5734 5729 5725 5722 5720 5718 5715 5712 5710 5707 5705 5703 5701 5698 5696
5734 5750 5757 5759 5767 5770 5768 5768 5764 5764 5762 5775 5775 5775 5772 5769 5767 5763 5762 5761 5760 5757 5753 5749 5746 5743 5740 5737 5734 5729 5724 5721 5719 5716 5713 5710 5707 5704 5701 5699 5697 5694 5692 5690
5719 5739 5743 5738 5757 5763 5764 5769 5764 5753 5758 5766 5762 5761 5762 5762 5760 5757 5755 5757 5754 5751 5748 5745 5742 5739 5735 5732 5729 5725 5720 5717 5715 5713 5708 5705 5703 5699 5696 5693 5690 5687 5685 5683
5713 5718 5706 5739 5767 5768 5761 5764 5767 5762 5762 5762 5760 5759 5759 5759 5755 5753 5752 5751 5749 5746 5743 5741 5739 5735 5731 5728 5724 5719 5715 5713 5711 5708 5704 5701 5697 5694 5690 5687 5684 5681 5679 5677
5701 5700 5712 5736 5752 5754 5747 5745 5759 5756 5754 5756 5760 5754 5750 5755 5753 5750 5749 5747 5744 5743 5739 5736 5733 5730 5725 5721 5718 5714 5711 5708 5707 5704 5700 5696 5692 5688 5685 5682 5679 5676 5674 5671
5696 5690 5692 5716 5742 5755 5746 5727 5748 5748 5744 5745 5743 5729 5733 5746 5747 5745 5742 5741 5738 5737 5734 5728 5726 5724 5719 5714 5712 5709 5707 5705 5702 5699 5695 5691 5688 5684 5681 5677 5674 5671 5669 5666
5689 5689 5702 5721 5736 5738 5711 5710 5733 5737 5735 5736 5731 5729 5734 5738 5737 5736 5735 5733 5731 5728 5724 5721 5720 5717 5712 5709 5707 5707 5704 5701 5697 5694 5691 5687 5684 5680 5676 5672 5669 5666 5663 5661
5686 5682 5685 5715 5720 5707 5703 5718 5724 5726 5726 5724 5724 5726 5727 5727 5726 5726 5724 5723 5721 5718 5715 5713 5712 5709 5705 5703 5703 5702 5699 5694 5691 5688 5686 5683 5678 5673 5670 5666 5662 5659 5657 5654
5678 5677 5691 5701 5702 5704 5708 5708 5712 5715 5716 5717 5716 5716 5715 5715 5715 5714 5714 5713 5712 5708 5705 5704 5703 5701 5698 5697 5696 5694 5690 5687 5684 5682 5679 5676 5672 5667 5663 5660 5657 5655 5652 5649
5675 5677 5685 5691 5694 5698 5699 5699 5704 5706 5707 5709 5706 5706 5705 5704 5703 5702 5702 5702 5701 5698 5695 5693 5694 5693 5692 5690 5688 5685 5681 5678 5676 5673 5670 5668 5664 5661 5658 5654 5652 5649 5647 5644
5667 5673 5677 5683 5683 5685 5689 5693 5695 5698 5699 5698 5695 5694 5694 5692 5691 5691 5690 5690 5690 5687 5685 5685 5685 5684 5684 5682 5680 5676 5672 5669 5667 5665 5663 5659 5656 5653 5651 5648 5646 5642 5640 5638
5657 5663 5664 5668 5676 5679 5679 5681 5684 5686 5687 5688 5687 5685 5683 5682 5681 5680 5680 5680 5679 5677 5677 5677 5676 5675 5675 5674 5671 5667 5664 5661 5659 5657 5654 5652 5648 5644 5640 5639 5637 5634 5632 5628
5660 5663 5664 5665 5667 5670 5670 5673 5675 5676 5675 5675 5676 5675 5673 5671 5672 5672 5671 5670 5669 5669 5668 5668 5667 5666 5665 5665 5662 5659 5656 5653 5651 5650 5647 5644 5641 5637 5633 5629 5626 5624 5621 5618
5655 5655 5652 5654 5656 5659 5661 5663 5665 5665 5665 5665 5665 5664 5663 5662 5662 5662 5661 5661 5661 5661 5661 5659 5658 5657 5657 5655 5652 5650 5648 5645 5643 5641 5639 5636 5633 5630 5627 5623 5619 5616 5612 5609
5645 5645 5645 5647 5647 5648 5650 5651 5650 5650 5652 5652 5653 5652 5652 5651 5650 5651 5652 5653 5653 5652 5652 5650 5648 5647 5647 5645 5643 5641 5638 5636 5633 5632 5630 5628 5625 5622 5619 5616 5613 5610 5606 5602
5632 5634 5635 5635 5635 5636 5637 5637 5637 5637 5639 5639 5639 5640 5641 5641 5640 5640 5641 5642 5641 5639 5640 5640 5639 5638 5637 5636 5634 5631 5628 5625 5623 5623 5621 5619 5616 5614 5611 5607 5604 5602 5599 5596
5622 5620 5621 5622 5624 5625 5625 5626 5626 5626 5627 5628 5628 5629 5629 5629 5629 5628 5629 5630 5631 5629 5629 5629 5629 5629 5628 5626 5623 5621 5619 5616 5614 5613 5611 5609 5606 5604 5601 5598 5596 5594 5591 5588
5617 5615 5615 5615 5615 5615 5615 5616 5617 5616 5616 5617 5618 5618 5617 5617 5616 5616 5617 5619 5620 5618 5617 5617 5618 5618 5617 5614 5612 5610 5609 5607 5605 5603 5601 5598 5595 5593 5591 5588 5587 5585 5583 5580
5608 5607 5606 5605 5605 5605 5605 5605 5606 5606 5606 5606 5606 5605 5605 5605 5605 5605 5606 5606 5606 5605 5604 5604 5604 5606 5605 5603 5600 5599 5599 5597 5595 5593 5591 5587 5585 5583 5581 5580 5578 5577 5574 5572
5598 5597 5597 5596 5596 5595 5594 5594 5595 5594 5595 5595 5595 5594 5593 5593 5594 5594 5593 5592 5592 5593 5593 5592 5592 5594 5593 5591 5589 5590 5589 5587 5586 5584 5581 5578 5576 5574 5572 5570 5569 5568 5566 5564
5587 5587 5586 5585 5584 5584 5583 5584 5584 5584 5584 5585 5584 5583 5583 5583 5583 5583 5582 5581 5581 5581 5582 5581 5581 5582 5582 5580 5578 5580 5580 5579 5577 5574 5572 5569 5567 5565 5563 5561 5560 5559 5557 5555
5578 5577 5576 5575 5574 5573 5574 5574 5574 5573 5574 5574 5574 5574 5573 5573 5573 5572 5572 5572 5572 5570 5572 5573 5572 5571 5571 5570 5571 5571 5571 5569 5567 5565 5563 5561 5558 5555 5553 5552 5550 5549 5547 5546
5569 5568 5568 5567 5566 5565 5566 5566 5565 5564 5564 5564 5564 5564 5564 5563 5563 5562 5562 5563 5564 5561 5562 5562 5561 5560 5560 5562 5563 5562 5562 5560 5558 5556 5554 5551 5549 5546 5544 5543 5541 5540 5538 5537
5561 5560 5560 5559 5559 5557 5556 5556 5557 5556 5555 5555 5554 5555 5555 5556 5555 5556 5556 5554 5553 5553 5555 5552 5551 5552 5551 5554 5554 5553 5552 5550 5549 5547 5545 5542 5540 5538 5536 5535 5533 5532 5530 5529
5554 5553 5553 5552 5550 5549 5548 5548 5548 5547 5547 5547 5546 5547 5548 5549 5548 5549 5548 5547 5544 5544 5546 5544 5543 5542 5544 5545 5545 5544 5543 5541 5540 5538 5537 5534 5532 5530 5528 5527 5525 5524 5523 5521
5548 5547 5547 5545 5545 5543 5543 5542 5542 5542 5542 5541 5541 5541 5541 5541 5541 5541 5541 5540 5539 5537 5539 5539 5538 5536 5538 5538 5537 5536 5534 5533 5532 5531 5529 5527 5525 5523 5521 5519 5517 5516 5514 5513
5544 5543 5542 5541 5541 5540 5539 5538 5537 5537 5537 5536 5535 5534 5535 5535 5534 5534 5534 5533 5533 5532 5532 5532 5532 5531 5531 5531 5530 5528 5527 5525 5524 5522 5521 5519 5517 5515 5513 5511 5509 5508 5506 5505